Regional Weather Roundup
Issued by NWS

Home | Current Version | Previous Version | Text Only | Print | Product List | Glossary On
Versions: 1 2 3 4 5 6 7 8 9 10 11 12 13 14 15 16 17 18 19 20 21 22 23 24 25 26 27 28 29 30 31 32 33 34 35 36 37 38 39 40 41 42 43 44 45 46 47 48 49 50
000
ASUS43 KDMX 222306
RWRIA

WEATHER ROUNDUP FOR IOWA
NATIONAL WEATHER SERVICE DES MOINES IA
500 PM CST THU FEB 22 2018

NOTE: "FAIR" INDICATES FEW OR NO CLOUDS BELOW 12,000 FEET WITH NO
SIGNIFICANT WEATHER AND/OR OBSTRUCTIONS TO VISIBILITY.

* - THESE STATIONS ARE NOT NWS STATIONS...THUS NOT UNDER NWS
QUALITY CONTROL.  THEY ALSO DO NOT REPORT WEATHER SUCH
AS PRECIPITATION OR FOG.

IAZ001>003-012>014-020>022-031>034-043>046-230000-
   NORTHWEST IOWA

CITY           SKY/WX    TMP DP  RH WIND       PRES   REMARKS
CARROLL *      CLOUDY    28  28 100 SE13      30.21F WCI  18
CHEROKEE *     CLOUDY    28  26  95 SE9       30.20F WCI  19
DENISON *      CLOUDY    28  28 100 SE9       30.20F WCI  20
LE MARS *      CLOUDY    27  27 100 E7G13     30.20F WCI  19
ORANGE CITY *  MIX PCPN  27  27 100 SE8       30.20R WCI  18
SHELDON *      MIX PCPN  25  25 100 SE14      30.18F WCI  13
SIOUX CITY     CLOUDY    27  25  92 SE9       30.20F WCI  18
SPENCER        LGT SNOW  27  24  89 E14       30.22F FOG     WCI  16
STORM LAKE *   CLOUDY    27  27 100 SE16      30.19F FOG     WCI  14
$$

IAZ055>058-069>071-079>083-090>094-230000-
   SOUTHWEST IOWA

CITY           SKY/WX    TMP DP  RH WIND       PRES   REMARKS
ATLANTIC *     CLOUDY    32  32 100 SE8       30.20F WCI  25
AUDUBON *      CLOUDY    30  27  86 SE12      30.20F WCI  21
CLARINDA *     CLOUDY    32  32 100 SE7       30.23F WCI  26
COUNCIL BLFS * MIX PCPN  30  30 100 SE12      30.18F WCI  21
CRESTON *      CLOUDY    30  30 100 E12       30.21F FOG     WCI  21
HARLAN  *      CLOUDY    30  30 100 SE9G16    30.23F WCI  22
LAMONI         CLOUDY    31  29  92 E12       30.21F FOG     WCI  22
RED OAK *      CLOUDY    32  32 100 SE9       30.19F WCI  24
SHENANDOAH *   CLOUDY    32  30  93 E10       30.20F WCI  24
$$

IAZ047>049-059>061-072>074-084-230000-
   CENTRAL IOWA

CITY           SKY/WX    TMP DP  RH WIND       PRES   REMARKS
AMES           CLOUDY    31  30  96 SE10      30.27F FOG     WCI  22
ANKENY *       CLOUDY    32  30  93 E8G14     30.27F FOG     WCI  25
BOONE *        CLOUDY    30  30 100 SE15      30.24F FOG     WCI  19
CHARITON *     CLOUDY    32  32 100 SE14      30.24F WCI  22
DES MOINES     FRZ DRZL  32  30  92 E9        30.26F FOG     WCI  24
GRINNELL*      CLOUDY    32  31  96 E10       30.30F FOG     WCI  24
KNOXVILLE *    CLOUDY    32  32 100 E7        30.26F WCI  26
MARSHALLTOWN   CLOUDY    32  32 100 E12       30.28F FOG     WCI  23
NEWTON *       CLOUDY    32  32 100 SE10      30.28F FOG     WCI  24
PELLA *        CLOUDY    32  32  99 E9        30.28F FOG     WCI  24
PERRY *        CLOUDY    31  31  99 E9        30.23F FOG     WCI  23
$$

IAZ004>006-015-016-023>025-035-036-230000-
   NORTH CENTRAL IOWA

CITY           SKY/WX    TMP DP  RH WIND       PRES   REMARKS
ALGONA *       LGT SNOW  28 N/A N/A E13       30.25F WCI  18
CLARION *      CLOUDY    30  30 100 SE16      30.27F FOG     WCI  19
ESTHERVILLE    LGT SNOW  25  24  96 E16       30.23F FOG     WCI  12
FORT DODGE *   CLOUDY    30  28  92 SE14      30.25F FOG     WCI  19
MASON CITY     LGT SNOW  28  25  88 E10       30.30F FOG     WCI  19
FOREST CITY *  LGT SNOW  30  28  93 E9        30.27F WCI  22
WEBSTER CITY * FOG       32  32 100 SE15      30.23F VSB 3/4 WCI  22
IOWA FALLS *   MIX PCPN  32  32  97 E15       30.29F WCI  22
$$

IAZ007>011-017>019-026>030-037>042-050>054-066-230000-
   NORTHEAST IOWA

CITY           SKY/WX    TMP DP  RH WIND       PRES   REMARKS
CEDAR RAPIDS   RAIN      33  32  96 E10       30.32F FOG     WCI  25
CHARLES CITY * LGT SNOW  30  30 100 E17       30.33F WCI  18
CLINTON *      CLOUDY    34  34 100 MISG      30.38F FOG
DECORAH *      FLURRIES  30  21  69 E10       30.35F WCI  21
DUBUQUE        FRZ RAIN  32  29  88 E12       30.37S FOG     WCI  23
MONTICELLO *   MOCLDY    32  32 100 E6        30.36F FOG     WCI  26
OELWEIN *      CLOUDY    32  32 100 E13       30.33F FOG     WCI  22
WATERLOO       CLOUDY    31  31 100 E13       30.32F FOG     WCI  21
$$

IAZ064-065-067-068-078-230000-
   EAST CENTRAL IOWA

CITY           SKY/WX    TMP DP  RH WIND       PRES   REMARKS
DAVENPORT      FOG       37  34  89 E7        30.38F VSB 3/4 WCI  32
IOWA CITY      CLOUDY    35  33  92 E8        30.35F FOG     WCI  29
MT. PLEASANT * CLOUDY    36  36 100 E7        30.31F FOG     WCI  30
MUSCATINE *    FOG       37  36  93 E6        30.35F VSB 1   WCI  33
QUAD CITIES    CLOUDY    38  37  97 E6        30.36F FOG     WCI  33
$$

IAZ062-063-075>077-085>089-095>099-230000-
   SOUTHEAST IOWA

CITY           SKY/WX    TMP DP  RH WIND       PRES   REMARKS
BURLINGTON     CLOUDY    37  36  96 E10       30.31F FOG     WCI  30
FAIRFIELD *    CLOUDY    36  36 100 E12       30.26F FOG     WCI  27
FORT MADISON * FOG       36  36 100 E7        30.31F VSB 1   WCI  30
KEOKUK *       CLOUDY    36  36 100 E7        30.30F FOG     WCI  30
OSKALOOSA *    CLOUDY    32  32 100 E7        30.29F FOG     WCI  26
OTTUMWA        CLOUDY    34  32  92 E9        30.27F FOG     WCI  27
WASHINGTON *   CLOUDY    36  36 100 E10       30.31F WCI  28
$$

ABBREVIATIONS USED IN REMARKS
   TC - TEMPERATURES IN CELSIUS
  WCI - WIND CHILL INDEX
   HX - HEAT INDEX
  VSB - VISIBILITY
$$





USA.gov is the U.S. government's official web portal to all federal, state and local government web resources and services.